• In Russia
  • List of Countries
  • For 7 days
  • Water Temperature
  • Satellite Maps
  • Weather Map
  • Weather Widgets
  • user-avatar
    Login

    Hourly Weather Benguela

    Today, 20 June, Wednesday

    Time Temperature Precipitation Wind Pressure Humidity
    00:00 +24°C° 0 mm 2 mps 761 mmHg 92%
    01:00 +23°C° 0 mm 2 mps 761 mmHg 93%
    02:00 +23°C° 0 mm 2 mps 761 mmHg 93%
    03:00 +22°C° 0 mm 1 mps 761 mmHg 93%
    04:00 +22°C° 0 mm 1 mps 761 mmHg 93%
    05:00 +22°C° 0 mm 1 mps 761 mmHg 91%
    06:00 +22°C° 0 mm 1 mps 761 mmHg 88%
    07:00 +23°C° 0 mm 1 mps 761 mmHg 84%
    08:00 +25°C° 0 mm 1 mps 761 mmHg 70%
    09:00 +28°C° 0 mm 1 mps 761 mmHg 57%
    10:00 +31°C° 0 mm 1 mps 761 mmHg 44%
    11:00 +32°C° 0 mm 2 mps 761 mmHg 43%
    12:00 +34°C° 0 mm 3 mps 760 mmHg 42%
    13:00 +35°C° 0 mm 3 mps 760 mmHg 41%
    14:00 +33°C° 0 mm 3 mps 760 mmHg 49%
    15:00 +31°C° 0 mm 3 mps 759 mmHg 57%
    16:00 +30°C° 0 mm 3 mps 759 mmHg 64%
    17:00 +28°C° 0 mm 3 mps 760 mmHg 74%
    18:00 +26°C° 0 mm 3 mps 760 mmHg 83%
    19:00 +24°C° 0 mm 2 mps 761 mmHg 93%
    20:00 +24°C° 0 mm 2 mps 761 mmHg 91%
    21:00 +24°C° 0 mm 2 mps 762 mmHg 90%
    22:00 +24°C° 0 mm 1 mps 763 mmHg 88%
    23:00 +24°C° 0 mm 1 mps 763 mmHg 90%

    Tomorrow, 21 June, Thursday

    Time Temperature Precipitation Wind Pressure Humidity
    00:00 +23°C° 0 mm 1 mps 763 mmHg 92%
    01:00 +23°C° 0 mm 1 mps 762 mmHg 94%
    02:00 +22°C° 0 mm 1 mps 762 mmHg 94%
    03:00 +22°C° 0 mm 1 mps 762 mmHg 94%
    04:00 +22°C° 0 mm 1 mps 762 mmHg 94%
    05:00 +22°C° 0 mm 1 mps 762 mmHg 92%
    06:00 +22°C° 0 mm 1 mps 762 mmHg 91%
    07:00 +22°C° 0 mm 1 mps 762 mmHg 90%
    08:00 +25°C° 0 mm 1 mps 762 mmHg 77%
    09:00 +28°C° 0 mm 1 mps 762 mmHg 65%
    10:00 +31°C° 0 mm 1 mps 762 mmHg 52%
    11:00 +32°C° 0 mm 2 mps 762 mmHg 49%
    12:00 +34°C° 0 mm 3 mps 762 mmHg 47%
    13:00 +35°C° 0 mm 3 mps 761 mmHg 44%
    14:00 +33°C° 0 mm 3 mps 761 mmHg 50%
    15:00 +32°C° 0 mm 4 mps 760 mmHg 55%
    16:00 +30°C° 0 mm 4 mps 760 mmHg 61%
    17:00 +28°C° 0 mm 3 mps 760 mmHg 70%
    18:00 +26°C° 0 mm 3 mps 761 mmHg 80%
    19:00 +24°C° 0 mm 2 mps 761 mmHg 90%
    20:00 +24°C° 0 mm 2 mps 762 mmHg 91%
    21:00 +24°C° 0 mm 1 mps 762 mmHg 92%
    22:00 +23°C° 0 mm 1 mps 763 mmHg 93%
    23:00 +23°C° 0 mm 1 mps 763 mmHg 93%

    Day after tomorrow, 22 June, Friday

    Time Temperature Precipitation Wind Pressure Humidity
    00:00 +23°C° 0 mm 1 mps 763 mmHg 94%
    01:00 +23°C° 0 mm 1 mps 762 mmHg 94%
    02:00 +23°C° 0 mm 1 mps 762 mmHg 93%
    03:00 +23°C° 0 mm 1 mps 761 mmHg 92%
    04:00 +23°C° 0 mm 1 mps 761 mmHg 90%
    05:00 +23°C° 0 mm 1 mps 761 mmHg 88%
    06:00 +23°C° 0 mm 1 mps 762 mmHg 85%
    07:00 +24°C° 0 mm 1 mps 762 mmHg 83%
    08:00 +27°C° 0 mm 1 mps 762 mmHg 69%
    09:00 +30°C° 0 mm 2 mps 762 mmHg 55%
    10:00 +34°C° 0 mm 2 mps 762 mmHg 41%
    11:00 +35°C° 0 mm 2 mps 762 mmHg 42%
    12:00 +35°C° 0 mm 3 mps 761 mmHg 42%
    13:00 +36°C° 0 mm 4 mps 761 mmHg 43%
    14:00 +35°C° 0 mm 4 mps 760 mmHg 48%
    15:00 +33°C° 0 mm 3 mps 760 mmHg 53%
    16:00 +31°C° 0 mm 3 mps 759 mmHg 58%
    17:00 +29°C° 0 mm 3 mps 760 mmHg 68%
    18:00 +27°C° 0 mm 2 mps 760 mmHg 78%
    19:00 +25°C° 0 mm 2 mps 761 mmHg 88%
    20:00 +25°C° 0 mm 1 mps 761 mmHg 89%
    21:00 +24°C° 0 mm 1 mps 762 mmHg 90%
    22:00 +24°C° 0 mm 1 mps 762 mmHg 92%
    23:00 +24°C° 0 mm 1 mps 762 mmHg 92%

    23 June, Saturday

    Time Temperature Precipitation Wind Pressure Humidity
    00:00 +22°C° 0 mm 0 mps 762 mmHg 92%
    01:00 +22°C° 0 mm 0 mps 762 mmHg 93%
    02:00 +21°C° 0 mm 0 mps 761 mmHg 92%
    03:00 +21°C° 0 mm 0 mps 761 mmHg 92%
    04:00 +23°C° 0 mm 1 mps 760 mmHg 91%
    05:00 +23°C° 0 mm 1 mps 761 mmHg 89%
    06:00 +23°C° 0 mm 1 mps 761 mmHg 87%
    07:00 +23°C° 0 mm 1 mps 761 mmHg 85%
    08:00 +27°C° 0 mm 1 mps 761 mmHg 70%
    09:00 +30°C° 0 mm 1 mps 761 mmHg 55%
    10:00 +34°C° 0 mm 2 mps 761 mmHg 40%
    11:00 +35°C° 0 mm 2 mps 760 mmHg 39%
    12:00 +36°C° 0 mm 3 mps 760 mmHg 37%
    13:00 +37°C° 0 mm 4 mps 759 mmHg 35%
    14:00 +36°C° 0 mm 3 mps 758 mmHg 42%
    15:00 +34°C° 0 mm 3 mps 758 mmHg 49%
    16:00 +33°C° 0 mm 3 mps 758 mmHg 56%
    17:00 +30°C° 0 mm 2 mps 758 mmHg 66%
    18:00 +28°C° 0 mm 2 mps 759 mmHg 77%
    19:00 +25°C° 0 mm 1 mps 759 mmHg 87%
    20:00 +25°C° 0 mm 1 mps 760 mmHg 89%
    21:00 +25°C° 0 mm 1 mps 760 mmHg 91%
    22:00 +22°C° 0 mm 0 mps 760 mmHg 93%
    23:00 +22°C° 0 mm 0 mps 760 mmHg 93%

    24 June, Sunday

    Time Temperature Precipitation Wind Pressure Humidity
    00:00 +22°C° 0 mm 0 mps 760 mmHg 93%
    01:00 +22°C° 0 mm 0 mps 760 mmHg 93%
    02:00 +22°C° 0 mm 0 mps 759 mmHg 92%
    03:00 +24°C° 0 mm 1 mps 759 mmHg 90%
    04:00 +23°C° 0 mm 1 mps 759 mmHg 89%
    05:00 +24°C° 0 mm 1 mps 759 mmHg 85%
    06:00 +24°C° 0 mm 1 mps 760 mmHg 81%
    07:00 +24°C° 0 mm 1 mps 760 mmHg 77%
    08:00 +27°C° 0 mm 2 mps 760 mmHg 64%
    09:00 +30°C° 0 mm 2 mps 760 mmHg 50%
    10:00 +34°C° 0 mm 3 mps 760 mmHg 37%
    11:00 +35°C° 0 mm 3 mps 760 mmHg 37%
    12:00 +36°C° 0 mm 4 mps 759 mmHg 38%
    13:00 +36°C° 0 mm 4 mps 758 mmHg 39%
    14:00 +35°C° 0 mm 4 mps 758 mmHg 45%
    15:00 +34°C° 0 mm 3 mps 758 mmHg 51%
    16:00 +33°C° 0 mm 3 mps 757 mmHg 58%
    17:00 +30°C° 0 mm 2 mps 758 mmHg 69%
    18:00 +27°C° 0 mm 2 mps 759 mmHg 81%
    19:00 +25°C° 0 mm 1 mps 760 mmHg 92%
    20:00 +25°C° 0 mm 1 mps 760 mmHg 92%
    21:00 +23°C° 0 mm 0 mps 760 mmHg 92%
    22:00 +23°C° 0 mm 0 mps 761 mmHg 93%
    23:00 +23°C° 0 mm 0 mps 761 mmHg 93%

    25 June, Monday

    Time Temperature Precipitation Wind Pressure Humidity
    00:00 +22°C° 0 mm 0 mps 761 mmHg 93%
    01:00 +22°C° 0 mm 0 mps 760 mmHg 93%
    02:00 +22°C° 0 mm 0 mps 760 mmHg 94%
    03:00 +24°C° 0 mm 1 mps 760 mmHg 94%
    04:00 +23°C° 0 mm 1 mps 760 mmHg 94%
    05:00 +23°C° 0 mm 1 mps 760 mmHg 94%
    06:00 +24°C° 0 mm 1 mps 761 mmHg 93%
    07:00 +24°C° 0 mm 1 mps 761 mmHg 92%
    08:00 +26°C° 0 mm 1 mps 761 mmHg 80%
    09:00 +28°C° 0 mm 2 mps 761 mmHg 68%
    10:00 +31°C° 0 mm 2 mps 761 mmHg 56%
    11:00 +32°C° 0 mm 2 mps 761 mmHg 53%
    12:00 +34°C° 0 mm 3 mps 760 mmHg 49%
    13:00 +35°C° 0 mm 3 mps 759 mmHg 45%
    14:00 +34°C° 0 mm 3 mps 759 mmHg 50%
    15:00 +33°C° 0 mm 3 mps 759 mmHg 54%
    16:00 +31°C° 0 mm 3 mps 758 mmHg 59%
    17:00 +29°C° 0 mm 3 mps 759 mmHg 69%
    18:00 +27°C° 0 mm 3 mps 760 mmHg 80%
    19:00 +25°C° 0 mm 2 mps 760 mmHg 90%
    20:00 +25°C° 0 mm 2 mps 761 mmHg 91%
    21:00 +25°C° 0 mm 2 mps 761 mmHg 91%
    22:00 +25°C° 0 mm 1 mps 761 mmHg 92%
    23:00 +25°C° 0 mm 1 mps 761 mmHg 92%
    Show more